Location: Brad
(46.1333°N, 22.7833°E)
Time: 05:02:40
(UTC+00:00)

H-2A R/B - Pass Details

Date: 03 February 2023
Orbit: 732 x 836 km, 98.2° (Epoch: 29 March)

Event Time Altitude Azimuth Distance (km) Brightness Sun altitude
Rises 15:56:37 0° 191° (S) 3,257 5.7 -4.1°
Reaches altitude 10° 15:59:06 10° 200° (SSW) 2,350 5.1 -4.5°
Maximum altitude 16:03:48 34° 265° (W) 1,310 4.1 -5.3°
Drops below altitude 10° 16:08:39 10° 329° (NNW) 2,424 4.8 -6.1°
Sets 16:11:16 0° 339° (NNW) 3,374 5.4 -6.5°
